Regional Weather Roundup
Issued by NWS

Home | Current Version | Previous Version | Text Only | Print | Product List | Glossary On
Versions: 1 2 3 4 5 6 7 8 9 10 11 12 13 14 15 16 17 18 19 20 21 22 23 24 25 26 27 28 29 30 31 32 33 34 35 36 37 38 39 40 41 42 43 44 45 46 47 48 49 50
000
ASUS44 KFWD 230415
RWRTX
NORTH TEXAS HOURLY WEATHER ROUNDUP
NATIONAL WEATHER SERVICE FORT WORTH TX
1000 PM CST SAT NOV 22 2014

NOTE: "FAIR" INDICATES FEW OR NO CLOUDS BELOW 12,000 FEET WITH NO
SIGNIFICANT WEATHER AND/OR OBSTRUCTIONS TO VISIBILITY.

TXZ118-119-230500-
DALLAS/FORT WORTH METROPLEX

CITY           SKY/WX    TMP DP  RH WIND       PRES   REMARKS
DFW AIRPORT    CLOUDY    54  54 100 SW12      29.74F
DALLAS LOVE    CLOUDY    59  56  89 S8        29.75F
FTW MEACHAM    CLOUDY    57  55  93 S9        29.74F
DAL-EXECUTIVE  CLOUDY    58  55  90 S5        29.74F
FTW-ALLIANCE   CLOUDY    56  55  97 S6        29.73F
FTW-SPINKS     CLOUDY    56  55  94 S3        29.79F
ARLINGTON      CLOUDY    58  54  86 W6        29.77S
GRAND PRAIRIE  CLOUDY    57  57 100 SW6       29.77F
ADDISON        CLOUDY    59  59 100 S5        29.78R
MESQUITE       CLOUDY    60  59  98 E8        29.77F
LANCASTER      CLOUDY    57  55  92 SE6       29.76F
$$

TXZ091>094-102>105-117-120-121-131>134-230500-
NORTH CENTRAL TEXAS

CITY           SKY/WX    TMP DP  RH WIND       PRES   REMARKS
SHRMAN/DENISON CLOUDY    60  60  99 SE14      29.74S
GAINESVILLE    CLOUDY    58  57  97 SE13      29.73F FOG
BOWIE          CLOUDY    54  54  99 S8        29.72F
BRIDGEPORT     CLOUDY    55  55 100 SE5       29.73F
DECATUR        CLOUDY    55  54  97 S8        29.72F
DENTON         CLOUDY    57  57 100 SE10      29.72F FOG
MCKINNEY       CLOUDY    60  59  96 S9        29.75S
GREENVILLE     CLOUDY    61  59  94 S8        29.78F
ROCKWALL       FOG       60  60 100 SE3       29.75F VSB 1/2
TERRELL        CLOUDY    62  60  93 CALM      29.77F FOG
WAXAHACHIE     CLOUDY    56  56 100 SE5       29.77F
CLEBURNE         N/A    N/A N/A N/A SE7       29.77F
GRANBURY       CLOUDY    57  55  92 S8        29.72F
$$

TXZ083>090-098>101-113>116-127>130-139>142-154-155-230500-
WESTERN NORTH TEXAS

CITY           SKY/WX    TMP DP  RH WIND       PRES   REMARKS
WICHITA FALLS  FOG       52  51  97 CALM      29.71F VSB 3/4
WF-KICKAPOO    FOG       53  53 100 W3        29.73F VSB 3/4
VERNON         PTCLDY    52  48  87 S5        29.72F
ABILENE        PTCLDY    52  50  93 SW6       29.75F
ABILENE-DYESS  PTCLDY    53  49  89 S8        29.75F
BRECKENRIDGE   CLOUDY    56  55  95 NW6       29.73S
GRAHAM         CLOUDY    55  55  98 SE5       29.70F
MINERAL WELLS  CLOUDY   N/A N/A N/A SE12      29.67F
STEPHENVILLE   CLOUDY    55  53  93 E14       29.72F
COMANCHE       CLOUDY    54  54 100 SE10G17   29.73F
BROWNWOOD      CLOUDY    54  52  94 NW3       29.77R
COLEMAN        MOCLDY    55  54  97 SW6       29.77F
BRADY          PTCLDY    54  54 100 SE6       29.78F
$$

TXZ143>147-156>162-174-175-230500-
CENTRAL TEXAS

CITY           SKY/WX    TMP DP  RH WIND       PRES   REMARKS
WACO           LGT RAIN  58  56  93 NE6       29.81F
WACO-TSTC      LGT RAIN  59  57  94 N7        29.83R
WACO-MCGREGOR  CLOUDY    57  52  82 N9        29.82F
HILLSBORO      CLOUDY    58  55  91 SE5       29.79F
CORSICANA      CLOUDY    62  60  93 CALM      29.81R FOG
MEXIA          LGT RAIN  59  58  97 NE3       29.78S
HEARNE         CLOUDY    60  59  96 CALM      29.79S
CAMERON        CLOUDY    60  59  96 NW8       29.80R
TEMPLE         CLOUDY    57  54  88 N10       29.82R
KILLEEN        LGT RAIN  56  55  97 NE10      29.82S VSB 3/4
KILLEEN-SKYLRK CLOUDY    57  52  82 N7        29.82F
FORT HOOD      TSTM      59  55  88 N7        29.80F
GATESVILLE     CLOUDY    57  55  94 NE6       29.83F
LAMPASAS       RAIN      57  55  95 CALM      29.83R
$$

TXZ095>097-106>112-122>126-135>138-148>153-164>167-230500-
EAST TEXAS

CITY           SKY/WX    TMP DP  RH WIND       PRES   REMARKS
PARIS          CLOUDY    61  57  88 E12       29.79F
SULPHUR SPRNGS LGT RAIN  61  61  99 SE9       29.79F
MOUNT PLEASANT CLOUDY    61  61  99 E3        29.85F
MINEOLA        DRIZZLE   61  61 100 E6        29.79F
TYLER          LGT RAIN  61  58  90 NE12      29.79F
LONGVIEW       LGT RAIN  62  59  90 SE9       29.79F
MARSHALL       CLOUDY    60  57  92 W3        29.88R VSB 1/4
ATHENS         RAIN      59  57  94 E8        29.74F
PALESTINE      HVY RAIN  60  60 100 E9        29.80F
JACKSONVILLE   CLOUDY    64  62  94 W6        29.82S
HENDERSON      LGT RAIN  61  60  97 CALM      29.81R
NACOGDOCHES    CLOUDY    63  61  94 E6        29.80F
LUFKIN         LGT RAIN  67  63  87 S8        29.79F
$$

SUPPLEMENTAL OBSERVATIONS (CENTRAL)

CITY           SKY/WX    TMP DP  RH WIND       PRES   REMARKS
LAKE TEXOMA      N/A     61  57  88 SE9         N/A
CADDO GRASSLND   N/A     61  57  88 S5G17       N/A
PAT MAYSE LAKE   N/A     57  55  94 E9          N/A
GREENVILLE       N/A     61  59  94 SE6G15      N/A
CEDAR HILL       N/A     57  54  88 SE6         N/A
ATHENS           N/A     61  57  88 E9          N/A
PALESTINE        N/A     61  57  88 NW1G15      N/A
LAKE LIMESTONE   N/A     61  57  88 W8          N/A
MCGREGOR         N/A     57  54  88 N8G24       N/A
TEMPLE           N/A     59  55  88 N2G12       N/A
$$

SUPPLEMENTAL OBSERVATIONS (WEST)

CITY           SKY/WX    TMP DP  RH WIND       PRES   REMARKS
MILLERS CREEK    N/A     54  48  82 S6          N/A
POSSUM KINGDOM   N/A     55  52  88 N1G12       N/A
LBJ GRASSLAND    N/A     55  52  88 SE6         N/A
GRANBURY         N/A     55  52  88 S10         N/A
COMANCHE         N/A     54  52  94 SE13G23     N/A
HAMBY            N/A     52  48  87 S5          N/A
IVIE RESERVOIR   N/A     54  50  87 CALM        N/A
COLORADO BEND    N/A     55  52  88 E8          N/A
$$

SUPPLEMENTAL OBSERVATIONS (EAST)

CITY           SKY/WX    TMP DP  RH WIND       PRES   REMARKS
TEXARKANA        N/A     61  57  88 SE3         N/A
LINDEN           N/A     61  57  88 E7          N/A
CADDO LAKE       N/A     61  59  94 NW3         N/A
GILMER           N/A     63  59  88 E2          N/A
HENDERSON        N/A     61  55  82 E2G17       N/A
LUFKIN           N/A     63  59  88 MISG        N/A
N SABINE NF      N/A     61  57  88 MISG        N/A
$$

SUPPLEMENTAL OBSERVATIONS ARE A COLLECTION OF AUTOMATED INSTRUMENTS
THAT ARE MAINTAINED BY A VARIETY OF FEDERAL AND STATE AGENCIES.
CERTAIN ELEMENTS...SUCH AS HUMIDITY VALUES AND SUSTAINED WIND
SPEEDS...MAY BE APPROXIMATED.




USA.gov is the U.S. government's official web portal to all federal, state and local government web resources and services.